Location: Newark
(45.7500°N, 8.6667°E)
Time: 18:07:28
(UTC+00:00)

OTV 5 (USA 277) - Visible Passes

Search period start: 20 August 2019 00:00
Search period end: 30 August 2019 00:00
Orbit: 305 x 329 km, 54.5° (Epoch: 11 August)

Date Brightness Start Highest point End Pass type
(mag) Time Alt. Az. Time Alt. Az. Time Alt. Az.
20 Aug ? 02:11:01 14° NNW 02:12:18 19° NNE 02:14:18 10° ENE visible
20 Aug ? 03:44:15 10° WNW 03:46:53 77° SW 03:49:32 10° SE visible
21 Aug ? 02:25:53 20° NNW 02:27:04 30° NNE 02:29:28 10° E visible
21 Aug ? 03:59:01 10° WNW 04:01:21 28° SW 04:03:40 10° SSE visible
22 Aug ? 02:41:20 54° NNW 02:41:44 65° NE 02:44:21 10° ESE visible
23 Aug ? 02:57:32 23° SSE 02:57:32 23° SSE 02:58:48 10° SE visible
23 Aug ? 19:16:05 10° S 19:17:16 14° SE 19:17:16 14° SE visible
24 Aug ? 19:29:36 10° SSW 19:32:05 37° SE 19:33:07 25° E visible
25 Aug ? 19:43:56 10° WSW 19:46:35 79° NW 19:48:17 19° NE visible
26 Aug ? 19:58:44 10° W 20:01:13 34° NNW 20:02:57 16° NNE visible
27 Aug ? 18:38:48 10° SW 18:41:26 62° SE 18:44:03 10° ENE visible
27 Aug ? 20:13:52 10° WNW 20:15:57 20° NNW 20:17:20 14° NNE visible
28 Aug ? 18:53:24 10° WSW 18:56:00 50° NNW 18:58:36 10° NE visible
28 Aug ? 20:29:09 10° NW 20:30:48 15° NNW 20:31:29 14° N visible
29 Aug ? 19:08:23 10° W 19:10:41 25° NNW 19:12:59 10° NE visible
29 Aug ? 20:44:22 10° NNW 20:45:31 13° N 20:45:31 13° N visible
